WetterOnline ( https://www.wetteronline.de )

Wetter aktuell Alsfeld

Aktuelles Wetter: Neu-Ulrichstein (350m)

6-stündlich | Neueste Meldungen
Ortszeit Temperatur Wetter
Fr, 30.09. 8:00 0.8° C Nebel
Fr, 30.09. 2:00 5.8° C wolkenlos
Do, 29.09. 20:00 9.0° C leicht bewölkt
Do, 29.09. 14:00 11.5° C leicht bewölkt
Do, 29.09. 8:00 5.8° C bedeckt
Do, 29.09. 2:00 6.9° C bewölkt
Mi, 28.09. 20:00 8.8° C bedeckt
Mi, 28.09. 14:00 9.3° C bedeckt
Ortszeit Temperatur Wetter
Fr, 30.09. 8:30 1.5° C Nebel
Fr, 30.09. 8:20 1.5° C Nebel
Fr, 30.09. 8:10 0.9° C Nebel
Fr, 30.09. 8:00 0.8° C Nebel
Fr, 30.09. 7:50 0.8° C Nebel
Fr, 30.09. 7:40 0.9° C Nebel
Fr, 30.09. 7:30 0.9° C Nebel
Fr, 30.09. 7:00 1.4° C Nebel
Fr, 30.09. 6:30 2.7° C Nebel
Fr, 30.09. 6:00 3.4° C Nebel
Fr, 30.09. 5:30 4.0° C Nebel
Ortszeit Relative Feuchte Sichtweite
Fr, 30.09. 8:00 100% 100 m
Fr, 30.09. 2:00 95% 27 km
Do, 29.09. 20:00 75% 55 km
Do, 29.09. 14:00 68% 30 km
Do, 29.09. 8:00 99% 6 km
Do, 29.09. 2:00 94% 45 km
Mi, 28.09. 20:00 84% 50 km
Mi, 28.09. 14:00 81% 45 km
Ortszeit Relative Feuchte Sichtweite
Fr, 30.09. 8:30 100% 0.2 km
Fr, 30.09. 8:20 100% -
Fr, 30.09. 8:10 100% -
Fr, 30.09. 8:00 100% 100 m
Fr, 30.09. 7:50 100% -
Fr, 30.09. 7:40 100% -
Fr, 30.09. 7:30 100% 0.2 km
Fr, 30.09. 7:00 100% 100 m
Fr, 30.09. 6:30 99% <100 m
Fr, 30.09. 6:00 100% 100 m
Fr, 30.09. 5:30 99% 0.5 km
Ortszeit Niederschlagsmenge Niederschlagsart
Fr, 30.09. 8:00 0.0 l/m2 in 12 Std. -
Fr, 30.09. 2:00 0.0 l/m2 in 6 Std. -
Do, 29.09. 20:00 0.0 l/m2 in 12 Std. -
Do, 29.09. 14:00 0.0 l/m2 in 6 Std. -
Do, 29.09. 8:00 1 l/m2 in 12 Std. -
Do, 29.09. 2:00 1 l/m2 in 6 Std. Regen
Mi, 28.09. 20:00 1 l/m2 in 12 Std. Regen
Mi, 28.09. 14:00 1 l/m2 in 6 Std. Regen
Ortszeit Niederschlagsmenge Niederschlagsart
Fr, 30.09. 8:30 0.0 l/m2 in 1 Std. -
Fr, 30.09. 8:20 keine Meldung -
Fr, 30.09. 8:10 keine Meldung -
Fr, 30.09. 8:00 0.0 l/m2 in 1 Std. -
Fr, 30.09. 7:50 keine Meldung -
Fr, 30.09. 7:40 keine Meldung -
Fr, 30.09. 7:30 0.0 l/m2 in 1 Std. -
Fr, 30.09. 7:00 0.0 l/m2 in 1 Std. -
Fr, 30.09. 6:30 0.0 l/m2 in 1 Std. -
Fr, 30.09. 6:00 0.0 l/m2 in 1 Std. -
Fr, 30.09. 5:30 0.0 l/m2 in 1 Std. -
Ortszeit Stärke Spitze Richtung
km/h Bft. km/h Grad Sektor
Fr, 30.09. 8:00 6 1 9 300° NW
Fr, 30.09. 2:00 4 1 14 180° S
Do, 29.09. 20:00 7 2 22 10° N
Do, 29.09. 14:00 7 2 11 240° SW
Do, 29.09. 8:00 9 2 11 200° S
Do, 29.09. 2:00 7 2 25 180° S
Mi, 28.09. 20:00 11 2 36 220° SW
Mi, 28.09. 14:00 28 4 35 260° W
Ortszeit Stärke Spitze Richtung
km/h Bft. km/h Grad Sektor
Fr, 30.09. 8:30 4 1 7 320° NW
Fr, 30.09. 8:20 4 1 - 320° NW
Fr, 30.09. 8:10 7 2 - 300° NW
Fr, 30.09. 8:00 6 1 9 300° NW
Fr, 30.09. 7:50 6 1 - 300° NW
Fr, 30.09. 7:40 4 1 - 300° NW
Fr, 30.09. 7:30 4 1 11 320° NW
Fr, 30.09. 7:00 7 2 11 290° W
Fr, 30.09. 6:30 4 1 7 330° NW
Fr, 30.09. 6:00 0 0 7 - -
Fr, 30.09. 5:30 4 1 7 290° W
Ortszeit Untergrenze Bedeckung Gattung
total tief tief mittel hoch
Fr, 30.09. 8:00 <30 m 7/8 0/8 - - -
Fr, 30.09. 2:00 - 0/8 0/8 - - -
Do, 29.09. 20:00 6300 m 5/8 3/8 - - -
Do, 29.09. 14:00 480 m 8/8 1/8 - - -
Do, 29.09. 8:00 30 m 8/8 8/8 - - -
Do, 29.09. 2:00 1500 m 7/8 7/8 - - -
Mi, 28.09. 20:00 780 m 8/8 8/8 - - -
Mi, 28.09. 14:00 480 m 8/8 8/8 - - -
Ortszeit Bedeckungsgrad in Achtel und Wolkenuntergrenze
Fr, 30.09. 8:30 3(<30m)
Fr, 30.09. 8:20 3(<30m)
Fr, 30.09. 8:10 5
Fr, 30.09. 8:00 7(<30m)
Fr, 30.09. 7:50 7(<30m)
Fr, 30.09. 7:40 7
Fr, 30.09. 7:30 6(<30m)
Fr, 30.09. 7:00 4(<30m)
Fr, 30.09. 6:30 4(<30m)
Fr, 30.09. 6:00 1(<30m)
Fr, 30.09. 5:30 keine Wolken
Ortszeit Luftdruck NN (hPa) Tendenz (hPa in 3 Std.)
Fr, 30.09. 8:00 1012 + 1,7
Fr, 30.09. 2:00 1009 + 1,0
Do, 29.09. 20:00 1006 + 1,8
Do, 29.09. 14:00 1003 + 0,6
Do, 29.09. 8:00 1002 + 0,6
Do, 29.09. 2:00 1001 + 0,2
Mi, 28.09. 20:00 1000 + 1,2
Mi, 28.09. 14:00 998 + 0,7
Ortszeit Luftdruck NN (hPa) Tendenz (hPa in 3 Std.)
Fr, 30.09. 8:30 1012 + 1,8
Fr, 30.09. 8:20 1012 keine Meldung
Fr, 30.09. 8:10 1012 keine Meldung
Fr, 30.09. 8:00 1012 + 1,7
Fr, 30.09. 7:50 1012 keine Meldung
Fr, 30.09. 7:40 1012 keine Meldung
Fr, 30.09. 7:30 1012 + 1,2
Fr, 30.09. 7:00 1011 + 1,2
Fr, 30.09. 6:30 1011 + 0,9
Fr, 30.09. 6:00 1010 + 0,7
Fr, 30.09. 5:30 1010 + 0,5
Ortszeit Schneehöhe (cm)
Fr, 30.09. 8:00 0
Fr, 30.09. 2:00 0
Do, 29.09. 20:00 0
Do, 29.09. 14:00 0
Do, 29.09. 8:00 0
Do, 29.09. 2:00 0
Mi, 28.09. 20:00 0
Mi, 28.09. 14:00 0
Ortszeit Schneehöhe (cm)
Fr, 30.09. 8:30 0
Fr, 30.09. 8:20 0
Fr, 30.09. 8:10 0
Fr, 30.09. 8:00 0
Fr, 30.09. 7:50 0
Fr, 30.09. 7:40 0
Fr, 30.09. 7:30 0
Fr, 30.09. 7:00 0
Fr, 30.09. 6:30 0
Fr, 30.09. 6:00 0
Fr, 30.09. 5:30 0
Link zu dieser Seite / Seite empfehlen

Das Wetter in ...